Theta_e
315 316 316 313 313 314 316 316 317 318 319 319 319 319 320 321 321 322 322 323 325 326 327 327 329 326 316 310 309 310 311 312 312 313 314 314 314 312 310 311 311 313 315 315 315 313 311 311 312 314 316 317 316 318 318 318 319 320 330 330 323 323 322 320 319 316 318 321 313 310 314 315 315 313 314 315 315 315 315 315 316 317 318 317 318 319 315 314
315 316 315 313 314 315 316 316 317 318 319 319 319 320 321 322 321 323 324 325 327 328 327 326 325 319 310 309 311 311 311 311 312 313 314 314 312 311 310 311 311 314 315 315 314 312 311 312 312 314 316 317 316 317 317 318 317 321 329 326 328 332 321 315 316 312 313 316 312 311 313 314 315 314 314 316 315 314 315 315 315 316 317 317 318 318 316 314
316 316 315 312 314 316 315 315 317 318 319 319 319 320 322 323 323 325 326 327 328 328 326 324 318 311 309 311 312 311 310 310 310 312 314 312 311 311 310 311 312 314 315 313 312 310 311 312 313 315 316 316 316 317 317 318 316 317 322 325 333 329 315 311 313 312 313 313 312 311 312 313 314 314 314 315 314 313 315 315 315 316 316 316 317 318 317 316
315 316 314 312 314 316 315 315 317 317 318 319 320 321 322 324 326 326 327 328 329 327 323 317 311 309 311 312 311 310 310 309 310 313 313 311 311 310 310 311 312 314 314 312 311 311 311 313 313 314 316 315 315 316 316 316 316 315 320 327 324 315 314 314 313 313 313 312 313 312 312 312 313 314 314 314 315 315 314 315 315 315 316 316 317 318 317 316
315 316 314 311 313 316 315 316 316 317 318 319 321 321 323 325 326 326 327 326 325 321 315 310 309 311 312 311 310 309 309 309 310 312 312 311 311 310 310 311 313 315 314 311 310 311 312 313 313 314 315 314 314 316 315 314 315 315 315 317 313 310 315 315 311 314 312 313 313 311 312 313 313 313 313 314 317 317 315 315 316 315 315 315 316 317 317 316
314 314 313 310 310 313 314 315 316 317 317 318 319 321 322 324 324 324 322 320 316 312 309 309 311 311 311 311 310 309 309 310 311 311 311 311 311 310 310 312 314 315 313 311 310 311 313 313 313 314 313 312 313 314 315 313 314 318 314 310 311 311 314 313 312 313 312 313 313 311 313 313 312 313 313 314 316 316 315 315 315 315 315 315 316 316 317 316
314 313 312 310 309 311 311 313 315 315 315 316 317 318 319 318 317 316 314 311 309 309 310 310 311 310 311 310 309 309 309 310 313 313 311 311 311 310 312 314 314 313 311 310 310 312 313 313 313 313 312 312 312 311 313 313 312 319 317 310 311 312 312 313 312 312 312 313 313 313 313 312 313 314 312 312 315 315 315 315 315 315 315 314 315 315 316 315
314 313 312 310 309 311 310 310 312 312 313 312 312 312 311 310 310 309 309 309 309 310 310 310 310 310 310 309 308 309 309 310 312 314 313 311 310 310 313 315 313 311 311 311 311 312 313 313 313 312 312 311 312 311 312 312 313 317 317 311 311 312 312 312 312 312 312 313 313 313 313 312 312 312 311 313 315 315 315 315 314 315 315 314 315 315 315 315
313 312 311 310 310 310 309 308 310 312 311 309 308 308 308 309 308 309 309 309 310 310 310 310 310 310 309 309 308 309 309 310 311 314 313 311 310 311 314 315 312 311 311 311 310 312 314 313 312 313 313 310 311 313 312 314 314 314 314 311 311 311 311 312 312 312 312 312 313 313 313 312 312 312 313 314 315 315 315 314 314 315 315 315 314 314 315 314
313 311 311 310 310 309 308 308 310 311 310 308 308 308 308 309 309 309 309 309 310 310 310 309 309 309 309 308 308 308 310 310 310 313 313 311 310 313 315 313 312 311 311 311 311 312 313 313 313 313 313 312 311 311 311 313 314 312 311 311 311 311 312 312 312 312 313 312 312 314 314 312 311 313 316 316 314 315 315 314 314 315 315 315 315 315 315 314
315 313 311 310 309 309 309 309 309 310 309 308 309 308 308 308 309 309 309 310 310 310 310 309 309 308 308 308 307 308 311 311 310 312 313 311 311 314 313 311 311 311 311 311 311 312 313 313 313 312 313 313 311 311 311 311 312 312 312 313 311 310 312 312 313 312 313 313 312 314 313 311 312 313 316 315 314 315 315 315 314 315 316 315 315 314 315 314
316 315 312 310 310 309 309 308 308 309 308 308 308 308 308 308 309 309 309 310 309 310 310 309 309 307 307 308 308 309 312 313 311 312 312 311 312 313 312 311 311 311 311 312 311 312 312 313 313 313 314 313 313 312 312 312 312 312 313 316 313 312 314 311 311 312 312 314 312 312 314 314 315 315 316 314 314 315 314 315 314 315 316 315 315 314 314 315
316 315 313 311 310 309 309 308 308 308 308 308 308 308 308 309 309 309 309 310 310 310 310 310 309 307 307 308 309 310 312 314 313 312 313 313 313 313 312 311 311 311 312 312 313 312 313 314 313 313 313 313 313 312 313 312 311 313 312 316 316 314 314 310 310 312 312 313 312 311 314 320 319 314 313 313 313 314 314 315 315 315 315 315 315 315 315 315
316 315 313 312 310 309 309 309 308 308 308 308 308 308 309 309 309 309 309 309 310 309 309 309 308 306 306 309 310 309 311 314 315 313 313 314 313 312 311 311 311 311 311 312 313 313 314 314 313 314 313 313 313 312 315 314 314 315 310 315 318 314 316 312 309 311 313 313 311 311 313 320 319 311 311 313 312 313 314 314 314 315 315 315 315 315 315 315
316 315 314 312 310 309 309 308 308 307 308 308 308 308 308 308 308 309 309 309 310 309 309 308 307 306 306 308 309 310 310 312 315 315 313 314 313 311 311 311 311 311 311 312 312 313 314 313 314 314 312 313 313 313 318 318 320 319 311 317 317 312 316 316 309 309 313 313 311 311 313 318 316 310 311 313 312 313 313 313 314 314 314 315 315 315 315 315
316 315 314 313 311 309 309 308 308 307 308 308 308 308 308 308 308 309 309 309 309 309 308 307 307 306 307 307 309 310 310 311 314 315 313 313 312 311 311 311 311 311 311 312 313 313 313 314 313 313 312 313 314 317 320 319 322 321 316 320 318 314 316 316 311 308 310 313 311 311 314 319 317 311 312 313 312 313 313 313 313 313 314 314 315 315 315 315
316 315 314 313 311 309 309 308 308 307 307 308 308 308 308 308 308 308 309 308 309 308 307 307 307 306 307 309 311 311 310 311 313 314 314 312 312 312 311 311 312 311 312 313 313 312 313 314 312 313 313 311 314 318 318 316 318 319 318 320 318 317 316 316 316 309 308 312 313 313 313 318 318 311 312 313 312 313 313 314 314 314 314 314 315 314 315 315
317 316 314 313 311 309 309 308 308 308 307 307 307 308 307 308 308 308 308 308 307 307 307 307 307 308 309 309 311 312 311 311 312 313 313 312 312 312 311 312 312 313 314 313 313 313 314 312 312 316 316 311 313 317 317 318 318 317 317 316 315 316 314 316 319 312 310 313 314 316 315 317 319 312 311 312 312 312 313 313 314 314 315 315 315 314 315 315
317 316 314 313 311 310 309 309 308 308 307 307 307 308 307 307 307 307 307 307 308 308 309 309 308 310 311 308 310 313 311 311 311 312 312 312 312 312 312 313 313 314 313 313 313 312 313 312 313 317 316 313 314 314 319 323 321 318 319 320 320 320 317 317 318 311 309 315 316 317 317 317 319 316 312 312 311 311 312 313 314 314 315 315 315 315 315 315
317 316 315 313 312 311 310 309 308 307 307 307 307 307 307 307 308 309 308 308 308 309 309 309 308 311 311 308 309 313 312 311 312 312 312 312 312 313 313 313 313 313 313 315 315 311 313 316 315 317 316 315 315 314 317 320 317 316 318 321 321 320 318 315 316 310 307 314 317 317 319 318 318 317 312 311 311 309 310 312 313 315 315 315 315 315 315 315
317 316 315 314 312 312 310 309 308 308 307 307 307 307 307 307 310 311 309 309 309 309 309 308 308 311 311 308 310 313 312 312 312 311 312 312 313 313 313 313 314 314 312 312 313 312 313 316 317 318 315 314 314 314 316 317 315 316 317 319 317 317 319 314 313 313 307 312 317 315 318 318 317 317 312 309 311 310 311 312 313 315 315 315 315 314 314 314
317 316 315 314 313 312 311 310 309 308 307 307 307 308 307 308 310 310 309 309 310 310 310 308 308 311 311 309 312 313 312 312 312 312 312 312 314 313 313 314 315 315 312 311 313 313 314 317 318 313 309 309 312 315 318 319 318 319 317 317 317 317 318 314 312 314 310 312 318 317 318 318 317 317 312 308 310 312 313 313 313 315 314 315 315 315 315 314
317 316 315 314 314 313 312 310 309 308 307 307 307 308 308 309 310 309 308 309 309 309 310 309 308 311 311 310 313 313 312 312 312 313 313 313 314 313 312 313 315 316 314 313 316 315 316 318 314 306 305 311 314 314 318 318 318 320 318 318 318 316 317 317 314 314 312 311 316 317 316 316 315 316 314 309 306 309 312 312 312 313 314 315 315 314 315 314
317 316 315 315 314 314 312 311 310 309 307 307 307 308 308 308 310 309 308 308 309 309 310 309 308 311 311 311 313 313 312 311 312 313 313 313 314 313 312 312 314 315 313 314 314 315 316 312 306 304 309 315 314 312 316 318 316 317 322 327 323 318 319 317 314 315 314 311 313 314 314 321 325 323 321 313 306 307 309 310 312 313 313 314 314 314 314 314
317 315 315 315 315 314 313 311 310 309 307 307 307 308 307 309 310 308 308 308 308 308 310 310 309 310 311 311 312 313 312 311 312 313 313 314 314 312 312 311 312 314 314 314 313 314 313 307 305 308 311 314 315 314 317 320 316 314 322 329 325 323 322 317 316 318 319 315 311 310 314 330 335 328 326 321 314 314 310 306 309 313 313 312 313 314 314 314
317 315 315 315 315 315 313 311 310 308 307 307 307 308 308 309 309 308 310 311 310 309 309 310 310 310 311 312 313 312 312 312 312 313 313 314 313 312 312 310 310 313 313 312 312 314 311 306 309 313 312 314 315 314 315 318 319 315 316 319 320 323 323 320 318 317 319 314 308 309 315 322 326 325 325 322 320 321 314 307 309 312 313 312 313 314 313 314
317 316 316 316 315 314 312 310 309 308 307 307 308 308 308 309 309 308 311 311 311 310 309 309 309 310 312 312 312 312 314 314 312 312 313 314 313 311 313 312 310 312 310 310 313 313 310 310 312 314 316 316 315 315 314 316 319 315 314 315 320 323 322 323 322 319 319 313 312 317 317 314 317 319 319 317 318 321 320 317 313 310 312 314 314 314 313 314
317 316 316 315 314 314 311 310 309 308 307 307 308 308 308 309 308 309 312 310 310 310 308 308 309 310 312 312 312 312 313 314 313 313 313 313 313 311 312 312 313 315 309 310 316 312 310 315 315 316 318 316 315 316 314 317 321 316 311 313 318 321 324 328 328 325 317 310 317 323 313 311 320 322 319 314 315 318 320 321 314 309 313 314 314 315 313 313
317 316 316 315 314 314 311 310 309 307 308 308 308 308 308 309 308 309 311 309 308 309 308 308 309 311 312 312 311 311 311 312 313 313 312 313 312 311 312 310 310 315 310 310 320 315 310 313 312 315 318 315 315 314 312 320 322 313 307 312 315 317 322 324 325 324 316 313 323 323 312 311 318 325 325 314 313 319 320 321 313 307 312 314 314 315 313 313
316 316 315 314 314 313 312 310 308 308 308 308 308 309 308 309 309 308 308 308 310 309 306 307 309 311 312 311 310 310 311 312 312 312 312 312 312 309 311 310 309 316 317 316 321 316 310 310 309 311 313 311 311 310 308 314 314 308 312 317 316 320 323 323 323 320 314 319 325 318 312 312 312 323 329 316 314 319 317 321 316 309 312 314 314 315 313 312
316 315 315 315 314 313 312 309 307 308 308 308 309 309 309 311 312 310 307 310 313 309 306 307 309 311 312 312 312 311 312 311 310 312 313 312 311 310 310 311 312 317 320 319 319 315 312 312 311 310 309 309 312 313 308 307 307 310 321 322 315 321 323 324 326 317 313 323 321 312 311 312 310 321 327 319 317 316 312 318 320 312 312 314 314 316 315 314
315 314 314 314 314 313 312 309 307 308 309 310 310 308 309 311 311 310 308 309 312 310 309 309 308 311 313 311 313 313 314 314 310 311 314 313 312 312 311 314 317 316 315 317 318 316 316 316 311 309 309 309 317 320 311 310 312 314 319 320 318 321 318 322 328 318 316 322 313 310 312 311 312 317 317 317 318 315 308 310 314 310 310 313 315 316 316 316
314 313 313 313 314 313 311 308 307 309 310 310 310 309 312 313 310 310 309 308 310 309 310 311 310 311 312 311 313 313 313 314 311 311 313 313 313 312 312 315 318 318 316 317 319 317 318 319 314 313 313 310 314 319 315 315 316 314 315 318 320 320 315 317 321 314 315 319 310 307 311 314 316 314 313 315 312 310 308 307 309 308 309 314 315 316 317 317
312 312 312 312 312 311 310 308 308 310 311 310 308 310 313 312 310 311 310 308 310 311 311 312 311 311 312 312 313 313 313 312 311 311 312 313 313 313 313 312 313 320 320 317 318 317 317 319 317 315 313 312 313 316 317 319 316 312 314 316 317 323 323 319 320 318 319 321 312 307 312 320 320 312 312 312 307 308 309 309 309 309 311 314 314 316 317 316
311 311 310 310 310 310 309 308 309 311 311 309 308 309 311 310 310 311 309 309 314 313 311 311 311 311 312 313 312 311 314 313 312 312 313 313 313 312 313 310 311 320 320 315 315 315 315 316 315 311 308 311 314 311 312 317 316 312 311 312 313 321 324 316 313 317 316 316 314 311 315 322 318 311 311 308 305 307 308 308 309 311 312 313 313 315 315 316
310 309 309 309 310 310 309 309 311 312 310 308 308 310 309 310 314 313 308 311 314 311 310 311 312 313 312 312 313 310 312 314 312 313 313 312 312 312 312 311 311 314 315 315 317 315 314 313 313 311 309 310 312 308 307 312 315 313 311 314 315 314 320 316 308 308 309 310 314 314 316 318 314 313 316 314 311 311 309 309 309 311 313 312 313 315 313 314
309 309 309 310 311 311 310 310 311 311 310 308 308 310 309 308 312 314 310 310 311 309 311 312 311 313 312 311 314 312 312 314 312 312 313 312 313 313 313 312 310 311 313 314 316 317 317 315 313 314 314 310 307 307 307 306 311 316 316 315 311 309 316 317 312 314 314 313 316 315 314 316 314 315 320 318 314 315 316 312 309 311 313 312 313 313 312 313
310 310 310 310 312 311 310 311 312 311 309 308 308 312 313 308 307 312 310 307 310 311 313 313 311 312 312 311 313 312 312 314 312 313 313 312 313 313 312 312 310 310 310 310 312 315 319 318 312 311 314 312 309 311 312 308 307 314 315 311 311 315 317 314 313 318 316 312 319 319 312 311 312 316 322 317 315 321 321 317 315 312 311 312 314 313 312 313
310 310 310 311 311 311 311 311 311 310 309 309 310 312 313 310 309 311 310 306 311 314 312 314 313 311 311 312 312 311 312 313 312 313 313 312 313 311 310 312 311 309 306 308 312 313 316 320 313 310 311 312 313 314 316 315 309 309 309 307 313 322 320 315 313 316 315 312 317 321 317 316 315 316 320 314 317 325 322 321 320 310 307 312 314 313 313 314
310 311 311 310 311 312 311 311 311 311 310 309 310 310 310 311 311 310 309 309 313 313 312 316 314 311 312 312 311 311 312 313 312 312 313 311 311 310 309 311 312 309 306 308 314 313 313 316 314 312 311 312 316 316 315 317 312 311 312 310 313 315 313 314 313 312 317 317 318 317 317 325 324 316 316 315 316 321 319 319 318 308 308 313 313 313 314 313
311 313 312 309 311 313 310 311 311 309 309 309 311 312 310 311 312 311 310 311 313 312 312 316 314 313 315 312 311 312 312 313 311 312 313 311 310 311 310 309 310 310 308 309 313 315 313 313 315 315 314 315 317 314 311 314 313 312 314 313 314 314 313 315 313 311 313 314 318 317 312 322 327 316 315 317 314 312 308 308 311 309 310 314 313 314 315 314
311 313 312 310 312 312 310 311 309 307 310 310 309 311 310 311 313 312 311 312 314 313 312 314 314 315 315 311 311 312 313 313 312 312 314 312 311 312 310 308 308 308 309 311 313 313 312 316 320 319 317 316 314 307 304 308 312 312 313 313 314 314 314 317 317 314 312 308 311 314 311 320 326 313 309 310 306 304 304 304 308 310 311 313 313 313 314 315
310 311 312 311 312 312 310 311 310 308 310 309 308 309 309 310 311 311 313 314 314 314 315 316 314 312 312 312 311 312 312 312 312 312 314 312 311 311 309 307 309 309 310 312 313 310 310 317 319 316 317 317 313 309 305 307 311 312 314 314 314 314 316 321 321 317 315 312 312 313 311 320 327 311 302 303 303 305 307 307 308 310 312 313 313 313 313 314
308 310 311 311 312 312 311 311 311 310 308 307 310 311 308 308 309 312 317 318 315 316 320 319 313 309 314 315 312 312 312 312 313 312 313 313 310 309 308 307 309 310 310 311 312 310 311 316 316 314 317 317 315 315 314 313 313 314 316 314 314 316 316 315 314 312 314 317 317 317 314 316 324 316 306 306 309 309 309 309 310 312 313 313 313 314 314 313
306 308 310 310 310 311 311 310 310 310 308 309 312 312 310 309 308 309 315 315 311 314 318 317 312 312 318 315 310 311 312 312 314 312 311 313 311 307 307 307 309 310 309 310 310 310 313 316 315 313 314 314 314 315 315 316 314 314 316 313 312 316 314 313 315 314 314 316 315 316 315 311 315 319 314 312 315 314 311 311 312 312 312 313 313 313 313 313
305 307 308 308 309 310 308 307 307 308 309 310 311 311 312 312 309 307 311 311 309 310 313 313 312 314 317 314 310 312 311 311 314 313 311 313 313 310 307 307 308 308 309 309 308 312 318 317 312 312 313 312 312 314 316 318 317 315 316 314 312 313 313 315 319 317 314 315 313 313 314 312 313 317 315 315 321 323 315 309 310 311 311 312 312 311 312 313
306 306 306 307 308 308 307 306 306 307 308 309 310 310 311 313 312 309 310 310 310 311 312 312 313 316 317 313 312 313 311 310 312 312 312 312 313 311 307 306 307 307 308 308 307 314 320 315 311 313 313 311 312 317 318 318 317 315 315 315 313 313 313 314 316 314 313 315 313 312 312 312 313 316 318 320 325 326 316 309 310 312 311 312 313 312 313 313
306 306 305 306 307 307 306 306 306 307 308 309 310 310 310 312 313 312 311 309 308 311 313 314 315 318 318 315 313 314 313 311 311 313 313 313 314 314 311 308 307 307 309 309 307 312 317 314 313 313 312 311 314 318 319 317 316 316 315 314 313 312 313 314 313 312 314 313 312 312 314 313 311 314 319 319 317 317 314 311 312 312 312 313 313 312 313 313
305 305 304 305 306 306 306 305 305 307 308 309 310 310 310 311 311 312 311 310 311 311 312 316 318 318 318 316 314 316 315 312 312 313 313 313 314 316 316 314 310 307 309 310 308 308 313 316 315 311 310 312 313 315 317 317 315 315 314 313 313 312 312 313 312 312 312 312 312 313 316 315 311 312 315 313 311 311 311 311 311 311 311 312 312 312 313 313
304 304 304 304 304 305 305 305 305 306 307 309 310 309 309 310 310 311 311 311 313 313 310 314 317 315 316 316 316 318 316 315 316 316 314 314 314 316 317 317 314 310 308 311 310 306 309 317 316 311 310 313 312 312 314 315 314 314 314 312 311 312 312 311 312 312 312 312 312 312 314 314 310 309 311 310 310 310 309 309 310 310 311 311 312 312 312 313
303 303 303 304 304 304 305 304 304 306 307 307 309 309 309 310 310 311 311 309 311 313 311 313 316 314 312 314 317 317 314 314 316 314 313 314 314 314 314 313 314 314 311 311 312 310 310 314 315 312 312 313 313 312 312 311 310 311 313 313 312 311 312 311 311 312 312 312 313 312 313 312 310 309 310 309 308 307 307 308 309 310 311 311 311 312 312 312
303 303 303 304 305 305 306 305 304 306 307 307 307 308 308 309 309 310 311 310 309 310 311 311 314 316 314 314 317 315 311 311 313 311 311 313 311 310 310 308 310 313 313 312 313 314 313 315 316 315 314 315 313 311 311 311 310 311 312 313 313 311 311 311 311 311 312 312 313 313 312 311 311 311 312 311 309 307 308 309 310 311 311 311 311 311 311 312
Wind_Speed
26 25 23 23 24 25 25 26 25 25 27 28 30 30 30 29 28 26 25 23 22 21 20 19 18 18 19 19 18 18 16 16 18 20 24 23 18 17 14 11 12 10 9 11 11 11 11 11 11 11 10 9 8 10 9 7 8 5 3 4 2 3 4 6 8 8 5 3 7 11 17 12 5 9 10 6 5 6 10 12 9 13 15 10 7 5 14 21
26 25 23 23 25 26 27 27 25 25 27 29 30 30 30 29 28 26 24 22 22 21 19 18 18 20 20 20 19 16 15 16 18 22 25 21 16 17 15 11 11 12 10 11 11 11 12 12 12 12 11 9 6 9 9 6 7 4 3 3 4 6 5 6 9 10 4 2 9 12 16 14 8 12 13 5 3 5 7 9 9 12 15 13 9 8 15 20
26 25 23 23 27 27 27 27 24 26 28 29 30 31 31 31 29 27 25 23 23 21 19 19 20 21 22 21 18 15 15 15 18 25 23 19 17 16 14 12 12 13 11 10 11 10 11 11 11 12 11 8 6 9 8 5 5 2 4 3 5 6 4 5 8 10 5 3 10 12 13 11 8 13 13 6 4 4 7 10 11 13 16 15 11 11 16 20
27 24 23 24 28 28 26 27 24 25 29 30 31 31 32 32 31 29 26 25 25 23 21 21 22 23 23 20 17 14 13 9 17 25 20 17 18 15 14 13 13 14 11 10 11 11 11 10 10 13 11 6 4 8 6 5 5 2 5 3 5 5 2 3 4 6 6 5 10 12 10 8 8 13 12 9 5 3 12 18 17 15 15 16 14 13 17 21
27 25 23 25 29 29 26 27 25 25 29 30 32 32 33 33 31 30 27 27 25 23 22 22 23 24 22 19 16 14 9 2 10 20 18 18 18 15 14 14 14 15 12 11 12 11 11 10 11 12 8 3 4 6 4 4 5 3 2 1 3 5 2 1 2 4 7 7 10 12 9 8 9 10 12 14 8 7 14 19 19 17 14 14 15 15 19 22
27 26 24 25 29 29 27 26 24 26 28 29 32 32 33 32 31 30 28 26 25 24 23 23 24 23 21 18 16 15 12 3 4 12 17 19 17 15 15 14 15 15 13 13 13 13 11 10 12 11 6 3 3 4 3 6 5 2 1 0 4 4 2 0 2 3 8 10 13 13 9 9 11 7 10 17 15 11 9 11 15 17 14 14 16 16 19 22
23 24 25 25 27 27 26 25 25 26 26 28 30 31 31 31 30 28 27 25 25 25 23 24 24 22 20 18 16 16 18 10 3 6 17 18 17 16 16 15 15 14 14 14 15 14 12 11 13 11 6 4 3 3 4 7 4 3 1 0 3 3 2 2 1 4 6 9 13 13 9 8 10 6 6 16 22 16 8 5 8 14 16 15 16 17 18 19
22 23 24 25 26 25 26 26 25 25 25 27 29 30 30 29 29 27 26 25 25 24 23 24 22 21 19 18 17 15 19 18 4 3 15 17 16 17 17 16 15 15 15 14 15 15 12 11 13 11 4 2 5 5 6 6 2 2 3 3 5 4 3 5 3 5 5 8 12 12 7 5 8 5 4 15 21 18 15 10 6 10 16 17 17 18 18 19
20 23 24 24 24 23 24 25 25 24 25 27 28 29 29 28 28 27 26 25 24 23 23 23 21 20 19 18 17 11 16 22 8 3 12 17 16 17 17 16 16 15 15 15 15 16 13 11 14 11 3 4 7 6 8 6 1 2 6 6 6 4 4 6 5 7 7 9 11 9 3 1 6 3 7 15 18 16 18 17 13 11 15 19 19 19 19 20
19 22 24 23 23 22 22 24 25 25 26 28 28 28 29 29 28 27 26 25 24 23 22 21 20 19 18 19 16 7 14 22 13 5 9 17 17 17 17 15 16 15 14 15 15 16 14 11 13 11 4 6 8 5 6 4 2 7 11 10 8 5 4 4 5 7 7 8 7 7 3 0 4 2 6 9 11 15 17 18 17 13 13 17 19 19 19 20
18 20 22 22 23 22 21 23 25 26 27 28 29 29 29 28 27 26 25 24 24 23 22 20 19 18 18 20 16 9 12 18 16 9 8 16 19 16 15 15 15 14 13 14 15 15 14 11 12 10 3 5 8 5 4 4 5 13 15 10 7 5 5 4 5 5 5 5 2 5 3 1 3 2 7 5 6 12 15 17 18 16 13 15 19 20 20 20
18 18 21 22 23 22 21 22 24 26 27 28 28 28 28 28 27 26 25 24 23 22 21 20 18 17 18 18 18 16 11 12 15 11 8 15 18 16 15 14 14 13 12 12 13 12 12 11 12 10 4 8 8 4 5 7 10 11 10 5 6 7 5 3 3 2 2 2 2 5 1 4 3 8 10 6 5 8 12 16 18 18 15 14 17 20 21 20
18 19 20 23 23 23 22 21 22 25 28 27 27 27 27 27 26 25 24 23 22 21 20 19 17 17 17 14 17 20 12 8 13 10 9 15 17 16 15 14 14 13 11 11 11 10 11 10 11 10 8 10 6 6 8 8 9 6 4 4 3 6 4 3 3 1 2 2 2 5 2 7 8 12 11 8 7 7 11 16 18 19 18 16 17 19 20 19
19 19 20 22 22 22 22 21 21 24 28 27 27 27 26 26 25 24 24 22 21 20 18 18 17 17 17 12 12 19 16 9 11 11 10 14 16 16 15 14 13 12 10 10 10 10 10 8 10 10 9 9 10 12 8 5 5 3 2 2 3 2 4 5 3 1 4 2 2 5 2 6 8 8 7 11 11 9 11 14 16 19 20 20 20 20 21 20
19 20 20 20 22 23 22 21 21 23 26 27 26 26 25 24 24 23 22 21 20 18 17 18 17 16 13 10 9 15 19 13 10 12 12 14 16 15 15 14 12 10 9 10 10 10 9 7 9 9 9 11 14 11 4 4 4 3 2 1 2 3 4 7 3 1 3 2 1 5 2 7 8 6 2 7 12 12 14 13 13 17 20 22 23 23 24 23
19 20 20 20 22 23 23 22 21 22 24 25 24 23 23 22 21 21 20 19 19 17 17 17 18 15 7 7 9 11 18 18 11 11 13 15 16 15 15 13 11 10 9 9 10 10 10 8 9 9 10 10 9 6 4 4 3 4 2 3 1 3 2 4 2 2 1 2 1 2 2 4 4 4 1 2 3 8 13 16 15 16 19 21 23 24 24 23
19 19 20 20 22 23 24 23 21 22 22 23 23 21 21 20 20 20 19 18 17 16 17 16 17 14 5 6 9 9 15 19 13 11 14 15 15 14 14 13 11 10 10 10 10 11 10 9 9 7 5 4 3 5 5 1 3 2 2 2 2 4 3 2 2 3 3 2 1 1 2 7 6 6 6 2 3 5 9 12 13 12 15 18 20 22 23 23
20 19 20 21 23 23 24 23 22 22 22 22 21 20 20 19 19 19 19 19 18 17 13 14 15 9 7 10 9 9 15 19 15 11 13 16 14 13 13 12 11 11 11 10 9 10 8 5 6 3 3 3 2 5 5 4 5 5 2 2 2 2 3 3 3 2 3 2 2 1 3 9 11 12 15 13 8 10 12 12 12 12 14 15 17 20 21 22
21 19 19 22 23 24 24 23 24 22 23 23 21 22 21 19 19 18 21 22 19 12 6 14 19 6 2 12 13 10 14 18 16 13 14 16 14 13 12 11 12 14 12 7 5 7 6 4 5 3 2 3 5 6 6 8 8 9 6 5 4 4 4 5 4 4 1 3 3 5 5 8 10 11 16 18 11 11 15 15 17 17 17 18 19 21 22 23
23 19 19 22 23 24 24 24 24 23 25 24 25 26 21 19 13 10 20 24 18 7 1 17 24 5 3 12 18 13 13 17 16 15 16 16 15 14 12 12 13 11 8 5 4 4 5 4 3 5 7 7 7 6 6 5 7 7 6 4 4 4 2 3 3 5 1 3 3 3 4 8 11 10 16 22 15 12 17 19 21 22 22 24 24 25 26 26
24 20 20 21 22 23 23 25 24 25 25 24 30 27 21 22 11 7 19 16 12 6 1 19 26 7 2 11 19 16 15 15 14 17 17 16 17 14 11 12 9 5 2 3 4 3 4 5 6 7 7 7 6 6 7 6 6 6 6 5 2 2 2 2 2 4 3 2 2 3 4 9 11 10 15 20 13 12 18 19 21 24 25 27 28 29 29 28
25 22 21 20 22 22 22 26 24 25 26 26 33 25 21 28 14 13 21 8 7 6 1 20 24 7 4 11 17 16 14 10 10 18 18 18 18 12 9 8 6 4 1 3 6 3 3 4 8 7 6 8 7 6 8 7 7 5 4 5 3 3 2 2 1 4 4 0 3 4 5 9 11 10 14 18 14 16 22 21 22 24 25 29 29 29 30 30
27 23 22 20 21 22 22 25 25 27 28 30 34 23 21 28 14 16 21 6 6 6 2 19 22 8 8 12 15 15 12 8 8 17 18 19 18 12 10 8 5 5 3 4 6 5 4 5 6 8 10 10 6 4 8 8 5 4 4 5 3 2 1 2 2 3 4 2 1 2 3 8 8 7 11 15 14 18 22 23 25 27 29 32 31 30 31 31
28 24 23 21 21 21 21 24 25 27 28 30 31 22 21 26 16 18 17 5 3 4 3 17 19 13 10 10 15 13 10 9 9 17 20 20 17 11 10 8 6 5 3 5 7 7 5 4 3 10 8 9 7 3 6 7 3 1 3 6 4 3 4 3 1 1 2 3 3 3 4 6 5 5 8 7 6 9 13 16 21 25 28 31 31 31 31 31
28 25 23 22 21 20 20 23 26 28 29 31 30 23 23 24 19 20 12 5 2 2 2 11 13 13 12 10 15 13 9 8 9 17 21 19 18 10 7 7 6 4 4 5 7 5 4 2 6 10 5 6 8 3 5 6 4 1 4 6 6 7 6 3 2 4 4 4 4 5 3 6 5 5 8 5 7 7 8 10 16 18 18 20 23 25 25 25
30 26 24 23 21 21 21 22 26 29 30 33 30 23 23 24 21 20 9 5 1 2 3 9 8 11 13 10 15 14 7 5 8 17 21 18 17 11 7 5 3 3 5 5 5 2 1 1 4 7 6 6 7 4 5 5 6 2 3 5 7 8 8 7 5 5 2 1 3 4 2 4 7 6 7 5 7 10 10 10 15 17 13 12 15 18 19 20
31 27 26 25 21 22 24 23 27 32 31 32 30 25 24 25 22 17 6 5 2 4 6 8 7 11 14 12 18 13 4 6 9 14 20 18 15 11 7 4 3 3 4 4 2 1 2 3 4 5 6 6 6 5 6 7 8 3 2 5 8 9 9 7 7 5 2 2 3 4 3 2 6 6 7 6 6 10 10 9 13 14 11 12 13 14 16 17
32 29 26 24 20 21 24 23 30 36 31 30 31 25 24 25 21 13 5 2 2 5 6 6 8 12 15 17 20 10 5 12 10 9 19 18 13 8 4 5 5 5 3 5 4 2 2 4 5 6 5 4 5 4 5 8 6 2 2 6 7 8 8 6 6 4 0 1 3 5 2 1 6 7 5 6 4 9 10 9 11 10 8 14 14 10 10 12
33 30 26 22 17 18 22 22 29 35 28 29 31 25 24 25 17 7 3 1 3 4 4 8 9 11 15 17 14 6 7 9 4 8 18 15 11 5 3 6 9 8 4 4 5 2 1 2 5 6 5 4 3 1 2 4 3 4 6 7 7 7 6 5 5 4 2 2 4 5 1 1 5 7 4 3 2 7 9 9 8 6 8 15 15 10 6 6
32 29 24 22 19 21 24 21 26 29 27 31 31 26 27 23 11 5 2 4 3 2 3 8 9 11 15 11 3 2 5 3 4 13 13 9 8 5 7 8 9 8 4 6 4 1 2 1 0 3 3 5 5 5 4 3 6 11 7 6 7 6 5 4 3 4 4 2 6 6 2 0 4 6 4 3 4 6 5 6 6 5 11 16 13 10 6 2
30 28 24 23 21 21 24 24 26 29 29 31 30 29 27 13 4 4 5 3 3 2 2 4 4 10 16 12 5 2 2 2 5 12 8 4 6 6 8 6 4 5 3 4 3 4 4 3 1 1 2 6 7 6 7 6 7 7 4 5 5 4 4 4 5 4 2 4 6 4 2 1 3 6 5 5 6 6 5 5 7 6 12 17 12 9 7 4
28 25 23 23 21 19 23 25 28 31 30 30 32 31 19 5 1 5 4 3 4 3 4 5 4 7 14 12 7 5 4 2 3 7 6 4 4 4 4 4 4 4 1 3 2 3 3 1 2 2 1 4 5 6 5 4 4 5 4 6 5 2 3 2 3 1 2 5 4 2 1 2 6 8 9 11 12 8 8 9 9 7 10 16 11 8 7 8
24 22 23 24 21 20 22 23 28 33 32 33 33 23 9 2 8 7 3 2 2 2 4 4 2 4 10 10 6 4 4 2 4 4 3 3 4 3 1 2 5 5 3 4 4 2 0 4 3 2 1 3 3 5 3 2 0 4 5 5 4 3 3 2 3 2 4 4 3 3 1 2 5 6 9 14 15 12 9 12 14 11 11 14 9 4 6 8
22 22 24 24 22 22 22 25 32 34 35 36 28 12 5 6 7 6 6 5 1 2 2 4 6 6 7 5 5 6 4 1 3 4 2 4 6 5 4 3 3 5 4 3 3 5 4 3 3 2 1 2 2 3 5 5 3 2 3 5 5 5 4 4 4 3 4 3 3 3 1 3 3 2 6 11 15 17 15 14 14 12 11 10 6 1 3 5
20 22 24 23 24 25 24 29 34 34 37 33 17 6 8 10 5 5 8 5 1 2 3 4 7 8 4 2 0 4 2 1 3 4 3 5 6 7 6 6 5 4 6 5 2 2 3 4 3 2 2 2 2 2 3 6 3 1 1 5 3 4 5 3 3 5 3 2 2 2 3 5 4 6 9 8 10 13 12 11 9 7 6 6 6 5 2 3
22 23 25 26 27 25 27 33 33 35 36 25 9 7 10 6 3 4 6 5 5 6 7 5 4 5 4 2 0 4 1 3 4 3 3 4 3 6 6 5 6 5 5 6 3 1 3 2 3 3 3 3 1 2 1 2 3 2 2 3 4 4 7 6 1 1 3 1 3 1 4 5 4 7 10 6 7 9 7 7 6 5 4 5 5 3 2 3
25 27 28 29 27 24 29 33 31 34 31 15 8 10 4 1 3 4 5 7 9 11 10 5 2 4 6 3 4 7 2 3 4 3 4 3 3 6 6 4 7 8 6 4 2 3 5 1 3 3 3 3 3 3 6 6 3 4 3 5 4 3 5 5 2 3 4 2 4 1 4 5 2 4 7 8 7 9 7 7 8 7 7 6 3 2 1 3
27 28 28 27 24 24 30 30 29 31 22 8 8 8 1 2 2 2 6 9 10 9 6 5 3 3 6 6 5 7 5 5 6 4 5 4 4 7 10 6 6 10 10 5 2 2 5 3 3 2 2 3 4 4 4 6 6 4 5 4 4 3 2 2 2 1 1 2 4 4 4 4 4 5 5 5 5 8 7 6 7 8 10 9 4 4 2 2
27 23 22 25 24 24 28 27 26 24 14 7 9 7 1 2 0 1 8 10 8 6 5 5 3 2 5 6 5 7 6 6 8 5 4 4 4 5 9 6 3 8 11 7 3 3 4 4 1 1 1 2 3 1 4 0 5 4 3 3 3 3 4 2 2 4 3 3 3 4 4 3 6 6 5 7 8 6 5 5 5 6 8 7 2 5 4 8
29 17 14 25 25 22 26 25 21 16 8 6 7 3 0 2 1 2 8 8 4 3 4 4 3 4 4 3 3 5 4 4 8 6 3 5 4 3 7 7 5 8 8 5 4 3 3 3 3 1 3 1 1 3 6 6 3 3 3 3 1 2 2 2 1 2 4 3 3 2 4 6 6 4 7 10 9 7 7 5 5 4 2 4 4 7 9 13
27 9 10 27 26 22 27 21 12 8 4 2 2 1 1 2 2 2 5 5 3 3 4 5 5 5 5 4 3 5 4 3 6 5 2 5 6 4 8 12 11 11 7 4 3 4 2 3 5 2 0 3 3 4 4 5 4 5 5 6 6 4 4 3 3 1 2 3 4 3 4 8 6 4 7 7 6 7 7 5 4 1 7 9 10 12 14 15
18 4 12 30 27 26 27 14 2 2 2 2 2 2 2 2 2 2 3 3 3 3 3 4 4 3 4 5 4 6 6 4 5 5 3 6 8 4 8 14 18 18 12 4 3 4 3 4 5 2 3 5 3 3 2 2 1 2 4 5 5 5 5 6 5 3 2 1 2 3 2 8 6 4 6 6 7 9 8 6 6 2 8 10 10 13 14 14
8 8 19 31 30 29 22 5 1 2 1 2 2 3 2 2 2 2 1 1 2 2 2 2 2 2 3 3 4 7 8 5 6 8 4 4 5 3 7 17 21 18 10 4 3 4 3 4 4 1 3 3 3 3 3 2 2 1 4 3 4 4 4 6 5 4 4 3 3 3 3 7 6 3 4 7 10 10 7 7 6 4 9 9 9 11 11 10
8 12 17 24 28 29 17 3 5 6 1 1 3 3 2 2 2 3 2 0 1 2 3 2 2 2 2 3 5 7 9 6 5 8 4 2 4 4 10 21 21 14 9 8 9 10 5 2 4 3 2 3 3 3 3 3 2 3 3 2 4 4 6 5 3 4 1 5 7 5 4 7 6 4 4 5 7 8 7 7 5 5 8 8 7 6 3 2
6 8 9 15 22 23 10 1 4 5 3 3 4 3 3 3 3 2 2 2 1 3 3 2 1 3 2 3 4 4 8 5 3 5 3 1 2 1 9 22 21 12 8 8 13 15 8 3 5 6 5 5 5 5 4 4 3 2 1 4 5 7 9 5 3 4 3 5 7 7 7 5 4 6 6 5 4 6 8 7 6 7 6 4 3 3 7 11
4 2 4 8 13 13 4 1 4 5 4 5 4 3 3 2 1 2 3 2 1 3 4 2 2 3 3 4 5 4 8 4 2 3 5 4 3 2 4 17 19 11 4 7 17 16 4 1 6 8 10 12 11 9 4 6 6 5 5 8 8 8 10 6 5 4 6 3 4 10 10 6 5 5 6 6 5 5 7 8 10 9 7 11 13 15 17 18
3 1 3 4 5 6 2 2 4 4 4 7 5 4 5 4 1 1 2 1 2 2 3 3 2 3 3 6 6 5 8 4 2 3 4 4 3 3 1 7 12 10 4 9 19 13 4 3 9 9 13 12 8 6 4 7 9 10 10 11 10 10 10 8 8 11 6 5 7 14 9 9 10 6 7 9 6 6 8 9 10 12 17 22 23 26 27 27
3 2 5 4 3 3 2 4 6 4 4 7 4 3 7 5 4 4 1 2 1 1 1 2 0 3 5 6 5 4 6 4 3 3 2 3 2 2 3 1 4 7 4 7 12 8 3 7 8 8 13 11 4 5 5 7 8 8 11 13 12 12 13 13 16 16 8 7 16 11 9 13 14 8 8 10 7 8 10 10 13 15 19 23 25 28 30 30
6 5 5 5 2 2 5 8 9 5 4 5 2 3 8 9 7 4 2 3 1 2 1 2 4 4 3 3 5 5 6 6 5 5 3 3 3 3 2 1 1 4 4 5 5 3 3 5 5 7 11 11 4 5 5 7 7 5 9 13 13 15 17 17 19 19 15 15 19 8 7 13 13 8 10 16 17 18 16 14 16 19 22 24 26 29 30 30
6 5 6 7 3 5 9 11 10 6 3 4 3 3 6 10 10 5 2 4 4 2 2 4 4 5 4 3 5 3 5 6 5 6 7 5 3 3 3 4 3 2 2 3 2 2 3 3 2 6 5 8 5 5 4 5 6 4 6 8 11 13 16 18 19 18 14 14 16 9 7 15 8 10 12 22 23 19 15 16 20 23 26 27 29 31 31 31
6 6 8 8 3 4 8 7 6 6 3 3 4 4 5 9 11 8 3 3 4 4 6 7 5 4 3 3 4 2 4 5 6 7 9 7 6 5 3 4 7 6 4 4 2 2 4 2 2 5 3 6 4 7 6 4 4 0 2 7 12 13 14 16 15 11 10 11 13 10 10 15 7 11 13 20 15 12 15 19 23 27 29 30 31 33 34 34
6 7 8 7 3 3 6 4 4 5 3 4 6 4 4 5 6 8 4 3 4 5 7 10 9 5 3 3 5 6 8 11 12 12 10 9 8 7 5 5 8 7 6 6 3 2 5 4 2 4 5 5 2 6 7 7 5 3 7 12 17 15 14 12 7 7 9 10 10 10 12 16 8 8 9 12 7 11 19 24 26 30 30 30 31 32 33 33
Wind_Direction
210 210 213 211 199 188 193 196 193 193 192 191 190 190 191 194 196 197 197 197 200 205 209 213 220 225 224 217 211 210 213 221 224 224 230 229 225 228 228 224 217 209 207 210 217 223 213 200 192 177 171 166 164 168 155 153 152 138 111 97 162 184 199 188 179 186 161 199 202 184 183 175 188 186 175 177 184 195 189 192 201 207 215 221 226 220 194 193
209 210 213 210 194 189 197 197 192 192 191 190 190 190 192 195 196 196 197 197 201 209 213 216 222 223 218 210 204 206 216 223 230 233 230 225 224 225 225 221 212 206 205 211 218 219 206 194 185 173 171 166 159 167 162 154 147 122 97 117 208 200 200 193 179 183 159 167 183 180 185 183 192 180 171 179 191 185 190 203 214 217 218 220 222 210 197 194
208 209 212 206 193 194 200 195 190 191 190 190 190 190 193 196 198 198 199 199 204 212 216 218 219 216 209 202 200 205 217 226 239 238 227 221 221 218 220 218 209 203 203 211 213 209 200 192 181 172 171 165 155 166 165 156 156 129 108 130 235 211 198 199 184 189 194 166 166 172 185 190 194 179 176 183 170 185 209 209 210 216 216 216 215 204 199 197
208 209 211 201 193 198 201 192 187 190 190 190 191 191 192 196 199 199 200 201 206 212 214 214 210 207 203 198 198 204 214 234 248 239 223 216 217 212 214 213 207 204 207 208 202 199 193 190 184 176 169 155 146 164 168 163 173 159 131 171 230 189 155 192 192 204 206 180 169 167 170 193 189 176 180 167 140 252 232 217 214 218 214 209 209 202 199 199
209 211 211 203 196 199 201 193 188 190 190 191 191 192 193 195 197 199 201 203 206 208 206 204 202 203 200 195 197 197 191 233 258 238 222 211 210 210 208 207 207 206 209 204 194 191 189 189 183 174 163 140 134 154 179 167 152 135 140 212 181 145 95 177 208 210 193 172 167 162 159 187 178 177 189 173 170 230 232 226 223 225 220 212 213 205 198 200
209 212 210 207 202 201 201 193 190 192 190 191 193 193 194 195 196 198 200 200 200 199 196 197 200 201 198 195 195 186 180 186 291 227 212 204 205 206 201 202 205 205 207 199 189 187 185 183 177 170 150 114 144 149 169 168 154 146 241 347 143 142 72 119 251 197 180 170 168 169 172 179 169 184 200 196 209 219 229 239 229 227 222 217 216 207 201 201
208 209 207 207 203 200 199 193 190 191 189 192 193 192 193 193 194 194 193 192 191 190 190 197 200 199 196 194 193 187 197 218 329 206 198 197 202 200 195 198 199 201 201 192 189 187 183 182 177 170 134 99 163 155 147 160 145 116 148 170 134 140 69 36 242 165 174 184 175 170 173 177 177 189 206 217 227 224 229 252 233 226 219 218 216 212 211 209
207 206 205 205 201 195 195 194 188 187 189 192 191 190 189 188 187 186 184 185 186 186 190 198 199 197 195 194 192 192 209 219 261 217 195 193 199 194 191 196 196 197 194 190 191 186 185 189 181 171 141 130 169 154 144 140 71 83 143 164 121 112 99 65 95 140 152 168 163 162 168 190 194 197 233 236 236 230 231 237 245 231 218 218 218 218 217 215
206 204 201 201 199 195 195 191 183 184 189 189 187 185 184 183 181 179 180 182 183 185 192 197 198 196 195 195 192 194 215 214 221 251 197 192 193 190 192 196 197 195 190 191 190 187 190 192 187 183 179 173 153 144 153 145 251 168 134 140 121 96 102 87 99 121 130 145 154 160 144 187 194 224 264 248 244 236 233 234 240 240 224 220 221 223 222 220
201 199 197 197 196 195 194 188 182 184 186 185 183 182 181 180 178 177 179 181 182 186 192 195 195 193 195 195 187 194 219 212 217 242 199 192 189 188 194 197 196 194 191 192 190 190 193 194 193 186 174 164 145 134 159 153 202 152 123 109 97 90 101 99 111 111 119 130 151 169 149 162 170 201 260 248 243 233 230 230 231 236 231 224 222 224 225 226
194 193 194 195 194 193 191 190 186 183 183 183 181 180 180 178 176 176 178 181 182 187 192 193 192 192 197 195 187 196 214 211 216 227 203 193 189 188 193 194 193 191 192 192 188 192 195 198 191 182 181 168 147 123 147 137 130 136 123 95 50 66 91 80 107 111 111 110 133 158 153 323 124 197 239 233 229 224 224 225 224 226 229 225 223 224 225 229
193 190 190 192 193 191 189 190 189 183 182 182 181 180 179 178 176 176 179 181 182 186 191 190 188 192 196 196 199 204 207 208 212 221 211 193 189 190 189 186 186 184 187 188 184 187 194 196 191 192 185 156 147 114 135 133 125 125 116 97 -0 19 50 37 66 95 109 96 114 121 113 286 219 226 235 223 215 216 217 221 222 222 224 222 220 222 225 229
192 185 187 192 192 191 188 187 188 185 182 182 181 180 179 178 176 176 179 181 183 185 189 187 185 191 192 196 209 210 211 213 209 218 211 192 189 189 186 182 182 178 176 179 177 176 179 184 191 191 163 148 140 124 133 120 118 119 84 101 40 16 359 343 19 2 126 108 139 131 229 271 253 242 235 225 219 214 217 221 223 223 225 225 222 224 226 229
188 182 184 190 192 191 188 186 187 186 183 182 182 181 180 178 177 176 178 180 182 183 185 183 181 187 191 200 216 214 217 218 207 214 209 191 187 186 186 184 182 180 175 175 175 172 167 168 181 173 147 141 130 120 112 60 79 106 69 66 69 124 268 312 359 110 137 150 171 132 199 264 268 261 237 230 224 213 216 218 223 227 227 229 230 231 234 236
187 181 180 187 191 190 188 185 185 185 184 183 182 182 179 177 176 176 177 179 179 180 180 179 178 180 191 210 219 215 216 217 208 209 203 190 187 186 187 187 184 184 181 179 177 176 168 162 166 146 122 130 128 116 66 19 33 41 104 315 355 159 252 313 354 107 146 184 123 119 211 269 267 272 271 236 226 220 228 231 235 235 231 231 233 235 240 243
188 180 179 184 187 189 188 184 184 184 184 182 181 180 179 176 175 174 175 176 175 175 175 175 178 175 178 211 211 211 211 211 207 203 198 189 187 186 186 188 188 186 182 179 179 178 172 157 140 120 115 129 126 103 62 43 1 0 106 179 239 165 243 314 345 346 75 142 42 109 224 274 279 264 123 87 227 228 242 251 249 240 235 234 236 239 242 246
188 180 179 182 185 187 186 184 183 182 181 179 177 177 176 174 172 170 171 172 171 170 171 173 174 177 202 219 206 208 205 204 203 200 193 186 187 188 187 185 182 185 177 172 175 174 168 151 133 122 104 108 106 98 94 26 265 291 46 108 202 179 189 271 283 324 33 117 243 22 245 252 275 272 246 264 312 279 264 263 257 245 240 237 239 243 244 247
187 182 182 182 184 186 185 185 182 180 179 174 171 172 173 171 168 167 168 168 161 156 163 170 165 172 233 220 202 198 198 199 200 198 190 184 184 185 186 183 177 175 162 157 168 165 158 132 121 126 54 64 118 120 140 207 192 183 177 137 195 205 201 235 237 280 26 87 224 314 276 262 276 283 273 273 281 280 277 273 268 258 248 242 241 243 244 246
185 183 185 183 184 184 185 185 181 179 175 170 167 167 166 163 160 161 166 164 156 148 162 178 170 152 242 201 192 188 190 192 195 194 185 181 180 180 182 179 174 167 151 140 164 162 142 101 98 131 137 156 187 168 173 194 172 169 173 146 155 178 227 242 244 274 50 126 239 246 249 271 281 286 284 282 281 277 277 275 269 262 255 252 247 246 247 248
183 184 187 184 183 183 185 184 182 178 173 172 169 162 158 154 144 154 168 166 164 158 193 181 178 166 41 175 181 179 176 181 188 186 180 181 178 173 168 163 162 157 148 147 169 166 129 129 168 183 183 189 193 167 145 155 141 136 130 116 146 167 231 246 257 306 44 148 252 258 258 276 274 275 281 283 286 280 274 273 268 263 258 257 254 254 254 254
181 186 189 186 183 182 185 185 181 177 175 176 172 165 164 162 152 168 170 167 175 170 143 178 180 190 62 163 173 172 164 166 180 181 177 179 175 168 163 156 146 139 171 143 125 124 125 161 210 208 189 175 161 132 109 101 93 100 135 144 162 185 219 228 225 320 11 157 262 349 323 277 267 271 275 279 284 271 265 264 263 262 258 258 258 258 260 261
181 188 192 189 183 182 185 184 181 178 176 178 175 172 175 173 171 176 167 156 181 172 136 177 179 185 134 158 169 167 160 151 170 180 177 175 174 175 169 151 134 144 192 117 107 113 153 212 228 200 149 113 91 89 95 92 91 88 121 139 165 211 231 275 293 344 10 128 265 346 336 279 269 269 269 269 263 261 264 260 260 263 261 260 259 261 264 265
182 189 194 193 184 181 185 184 181 180 180 180 178 175 176 177 179 174 164 134 169 176 161 177 181 178 143 156 169 168 161 149 163 178 177 176 176 175 164 144 125 140 157 166 149 149 178 252 234 166 134 115 92 72 92 85 82 92 111 134 179 229 164 216 263 342 10 80 240 301 303 282 283 285 274 267 260 263 267 263 260 259 259 261 262 263 266 268
184 190 196 193 185 182 184 184 184 182 183 182 180 177 174 178 178 167 158 86 148 183 182 178 185 185 163 157 172 173 167 161 168 176 178 178 173 167 162 147 121 134 170 176 150 153 196 272 176 143 135 131 124 104 113 106 75 73 143 142 164 191 168 190 224 4 7 31 37 17 324 294 307 310 282 286 297 275 272 272 266 258 257 261 264 265 266 269
186 193 196 190 187 186 182 185 186 182 182 182 180 178 174 177 174 165 152 52 118 183 181 181 188 190 180 167 173 172 164 165 171 176 180 180 172 158 151 146 135 166 186 140 126 159 226 272 135 135 125 131 133 160 178 143 118 227 209 175 168 167 154 142 87 67 41 -0 -0 28 345 288 316 309 268 305 346 306 296 296 279 268 266 267 270 271 270 271
188 192 194 191 190 187 181 185 186 181 182 182 180 175 175 175 169 166 151 42 235 209 161 178 185 187 187 176 166 157 153 180 179 178 179 180 178 162 143 139 99 161 172 134 126 173 225 69 110 131 134 132 135 179 201 147 124 184 225 168 146 131 122 126 115 89 99 240 334 47 135 262 315 304 270 316 335 305 305 297 282 282 290 296 293 288 281 276
189 191 193 192 193 189 182 182 183 181 182 182 177 173 175 171 166 167 137 32 257 181 146 173 178 179 182 171 162 153 148 174 163 177 179 178 184 171 161 170 87 132 167 129 143 226 119 93 70 96 114 122 142 193 205 145 129 190 231 127 124 119 125 133 110 94 181 224 331 17 111 231 297 275 276 332 334 308 308 294 289 296 316 335 324 305 288 276
192 191 191 191 196 197 189 186 185 182 180 178 174 172 173 168 164 161 117 50 205 144 142 175 168 170 170 164 168 160 138 153 145 179 182 176 182 169 166 192 144 137 147 125 177 257 91 150 162 128 109 137 177 218 186 135 115 233 205 119 118 115 120 117 95 94 66 8 307 319 57 197 269 273 303 349 327 296 291 281 290 298 327 345 340 323 294 264
190 189 189 190 197 198 195 195 189 182 175 172 172 172 168 164 158 132 89 176 164 109 141 158 154 165 160 157 169 156 132 150 134 166 173 171 179 165 130 171 138 113 69 87 160 223 44 184 194 143 129 172 185 0 127 116 99 170 151 101 84 76 80 81 86 101 59 34 244 266 5 180 265 284 316 2 266 256 268 275 278 278 326 344 346 346 317 252
187 187 187 191 195 193 194 196 188 179 170 169 171 167 161 158 146 122 187 210 153 94 135 151 161 164 152 144 153 116 122 138 119 138 151 158 165 139 110 132 122 104 46 38 90 230 317 37 40 93 123 158 131 66 46 70 127 142 126 78 67 41 40 52 52 81 66 318 251 255 302 180 266 282 257 205 214 215 238 290 287 298 338 345 354 7 359 228
188 188 190 196 201 198 194 190 182 175 169 168 165 159 155 145 106 157 198 188 126 95 110 146 172 156 155 156 159 154 88 48 133 139 144 142 139 124 114 125 101 82 47 37 53 330 0 58 6 12 108 127 108 62 42 61 108 116 98 93 85 7 14 27 1 42 96 256 259 267 292 184 222 262 253 242 256 225 199 257 275 292 333 341 358 24 37 106
188 190 194 200 208 206 197 189 176 168 166 165 160 157 149 116 213 196 190 145 145 187 172 175 208 174 166 159 148 154 115 88 171 150 145 144 147 156 148 170 157 104 140 185 135 355 27 45 314 356 200 166 115 74 44 11 29 77 100 108 95 11 15 3 321 357 215 241 270 280 245 215 233 250 261 266 269 249 208 233 255 256 309 331 353 34 63 102
189 190 190 199 209 205 195 185 171 165 163 161 159 155 125 136 207 192 167 184 195 197 150 140 144 156 158 149 145 154 109 122 191 160 134 128 148 194 254 182 147 122 177 182 128 105 335 306 311 77 245 227 148 118 132 266 291 126 134 126 126 116 90 256 264 293 260 257 304 293 244 259 270 262 250 251 260 268 256 255 263 260 284 315 334 35 76 107
186 186 188 196 200 193 186 177 169 164 160 159 159 146 121 193 201 150 158 207 268 48 79 103 107 121 144 147 172 169 103 72 174 130 115 129 145 194 226 216 155 100 109 142 147 163 175 263 244 168 219 200 160 155 152 143 133 168 163 127 142 154 147 200 213 209 243 279 310 298 258 202 213 267 242 241 263 280 279 273 273 267 272 293 289 236 105 126
179 186 190 188 181 181 179 172 168 164 163 161 156 155 185 200 200 144 167 190 183 67 59 86 114 131 149 34 180 189 119 139 170 115 141 165 169 188 190 197 193 135 127 155 201 167 160 235 261 302 302 127 140 226 129 108 115 232 134 106 147 180 138 133 178 175 172 333 306 255 240 214 207 283 278 263 273 282 282 281 276 255 251 260 245 230 214 195
172 179 181 177 173 175 174 171 168 168 169 165 159 191 199 200 187 170 164 148 145 131 104 87 91 131 163 54 224 228 39 111 160 144 176 192 194 193 188 192 189 176 161 155 162 155 150 247 312 355 10 45 60 240 69 98 166 159 121 165 206 166 112 112 188 30 77 269 274 227 256 288 324 298 297 313 299 291 292 285 270 242 242 249 243 253 252 223
164 169 175 175 171 170 172 171 170 172 175 175 183 195 192 117 170 166 136 128 139 136 125 135 151 145 166 166 190 202 172 119 156 170 182 189 214 192 191 209 185 185 193 152 153 200 155 139 337 38 73 8 4 84 58 38 87 120 171 201 181 116 91 108 158 9 45 240 275 286 248 287 331 280 315 347 314 288 283 282 281 267 259 261 276 354 302 233
158 165 175 177 169 167 171 172 173 175 178 190 199 197 122 95 190 150 132 133 134 136 136 157 167 141 166 178 184 185 175 163 172 179 173 191 245 195 177 193 185 187 196 164 138 197 132 113 328 37 121 309 345 86 79 19 35 105 170 161 115 132 142 92 138 163 133 239 278 304 283 264 205 225 294 320 273 265 276 290 284 261 252 254 285 5 13 173
157 162 177 179 165 164 172 173 174 175 178 199 199 204 156 120 254 165 150 143 130 129 151 171 161 106 167 175 165 173 185 176 170 176 176 188 240 207 177 180 176 186 188 160 149 182 121 125 230 317 264 298 6 93 180 230 24 50 100 101 76 124 157 158 149 165 181 202 251 309 327 267 225 215 219 231 235 240 259 280 281 264 245 240 288 21 72 113
156 155 177 179 166 163 172 170 168 173 190 209 189 192 234 120 102 181 157 149 127 115 161 181 157 134 159 166 151 168 182 170 169 183 203 184 199 233 203 185 156 167 167 126 128 167 108 127 173 309 329 204 174 219 191 173 142 102 117 153 178 70 104 161 112 114 144 162 188 271 306 266 248 209 197 220 232 221 219 244 295 322 134 129 64 69 103 110
158 143 167 175 167 162 165 161 164 182 197 205 150 135 204 131 127 157 155 143 85 69 129 145 144 146 148 151 168 172 151 144 177 191 214 196 198 226 211 192 161 148 144 100 130 167 134 138 154 134 257 194 218 247 201 180 173 162 173 186 178 149 120 158 246 265 116 145 167 169 266 266 253 209 205 223 240 247 244 243 279 348 111 100 78 88 102 102
160 128 159 171 167 160 159 155 170 174 133 157 146 112 132 121 113 137 148 122 75 57 89 105 118 141 152 158 159 159 154 153 185 195 211 213 210 218 205 185 163 155 155 136 147 163 116 107 118 137 211 209 243 278 209 194 174 158 203 197 170 164 141 153 210 224 118 131 145 117 269 270 259 215 209 234 266 283 274 239 241 171 112 94 81 92 94 90
126 107 152 167 166 161 160 158 243 162 137 191 128 69 82 98 97 120 123 79 79 74 73 89 125 137 158 162 141 160 172 168 189 201 209 217 214 225 193 173 161 158 155 135 146 154 119 108 115 70 303 308 322 337 19 41 59 220 240 190 154 180 146 143 181 170 144 178 142 89 282 270 272 258 233 250 273 290 270 220 215 164 125 105 92 94 86 80
97 101 142 165 168 167 167 187 194 181 178 115 98 72 72 57 71 117 143 138 98 119 114 117 155 138 151 150 138 170 184 179 200 207 200 196 207 211 184 173 167 164 172 180 176 172 177 157 125 112 19 354 350 350 338 312 216 206 225 158 141 132 102 106 141 107 140 206 157 144 242 258 276 318 317 285 291 293 257 212 186 159 134 112 97 81 46 312
116 91 121 156 170 175 177 180 164 157 136 120 118 131 118 58 34 70 112 119 86 118 128 127 129 105 119 142 115 157 188 178 175 190 182 204 225 216 182 182 181 180 192 189 167 163 176 178 146 152 169 187 201 206 218 219 192 194 162 144 163 150 139 156 133 105 229 223 155 178 234 253 290 319 315 296 301 290 261 230 194 176 160 166 211 268 274 261
141 85 111 140 169 181 178 75 126 130 153 151 131 163 157 118 51 43 77 102 95 96 93 92 140 99 85 144 128 161 202 191 79 156 181 193 224 315 185 189 193 193 189 164 157 152 138 202 184 189 196 201 205 204 172 123 142 192 178 162 178 177 166 151 111 160 209 162 171 225 232 239 255 268 271 262 258 260 254 232 212 215 258 280 280 284 283 280
133 199 149 127 159 165 123 148 150 116 155 168 159 177 163 129 110 59 47 66 157 133 71 45 116 138 147 162 152 176 202 193 118 163 168 172 211 329 63 184 196 197 169 157 162 148 82 211 202 205 216 218 202 191 169 132 166 192 176 168 180 178 168 159 184 213 179 116 241 237 213 230 240 215 226 246 245 247 253 252 253 273 292 292 292 291 291 292
131 149 169 153 150 161 143 175 166 113 133 165 157 154 159 150 155 167 123 35 50 177 130 52 281 193 171 167 160 161 174 180 203 199 138 144 167 43 39 69 192 197 173 160 171 149 113 207 206 196 221 233 177 152 177 165 175 183 172 177 179 172 174 184 209 221 172 173 243 230 166 221 235 191 209 232 223 231 245 260 273 279 278 277 279 281 281 281
124 115 158 163 146 149 134 138 147 132 130 158 150 154 169 175 179 171 99 80 2 300 181 181 220 196 166 162 151 156 172 179 200 206 158 147 153 110 97 90 180 195 160 145 180 170 151 210 197 172 217 241 201 160 184 173 168 170 178 185 178 175 187 195 211 222 203 212 243 229 166 239 239 178 206 229 229 238 246 254 262 263 263 266 267 268 270 271
126 118 143 147 111 119 129 129 143 153 151 170 187 186 177 183 187 180 124 147 184 238 188 197 200 162 143 134 123 156 204 178 176 199 179 155 166 176 179 181 168 157 147 153 181 187 188 225 151 136 207 254 212 176 192 172 165 180 185 187 185 186 198 207 215 222 213 225 249 254 259 268 244 151 201 232 231 236 246 249 254 257 258 260 260 261 264 266
120 111 129 138 115 130 140 131 141 153 156 189 192 174 181 198 191 174 176 212 193 182 178 174 158 124 105 111 116 171 196 139 123 161 162 150 167 185 200 186 160 144 160 179 162 148 180 220 52 105 179 256 224 181 175 104 81 311 229 193 195 197 205 213 217 215 201 215 241 249 257 263 229 151 205 237 226 219 238 244 249 256 258 258 257 260 263 266
127 107 119 133 122 152 156 137 141 161 172 186 187 168 165 191 174 156 175 245 222 205 192 172 156 126 111 180 194 166 132 109 97 100 99 90 101 111 102 131 150 151 164 167 151 155 164 157 114 139 184 262 293 147 140 93 75 268 245 208 200 203 211 219 227 228 209 201 217 225 234 249 236 150 204 241 209 208 235 241 247 254 259 260 260 262 266 269